Погода в Рафаиловичи

Черногория     42°16′49″N   18°52′55″E
темп.,
°C
ветер,
м/с
пор.,
м/с
влажн.,
%
обл.,
%
осадки,
мм/ч
давл.,
гПа
погр.,
м
13 мая, чт
чт1323:00+13ююв01854 0.2 101132
02:00+11св22895 0.3 101136
05:00+12св228299 0.0 100950
08:00+14ююв1277100 0.2 1008191
11:00+13юз3681100 1.3 1009586
14:00+14ююз368295 2.9 1010818
17:00+15ююз347773 3.3 1010765
20:00+12ююв128449 4.6 1010100
14 мая, пт
пт1423:00+11св229263 2.1 101195
02:00+10св339766 6.0 1011114
05:00+11всв239661 1.8 1011139
08:00+14ююв12725 2.6 1013645
11:00+16ююз24600 0.6 10131101
14:00+18ююз36525 0.7 10141565
17:00+17ю345593 0.0 10131120
20:00+13вюв128010 0.0 101357
15 мая, сб
сб1523:00+12всв228383 0.1 101348
02:00+12вюв2387100 1.0 101299
05:00+12ююв2397100 5.5 1010296
08:00+12юв3597100 21.6 1011380
11:00+13вюв2391100 4.6 1012322
14:00+13с1190100 5.6 1012216
17:00+14ссв0184100 0.4 1011236
20:00+12зсз01896 0.5 101258
16 мая, вс
вс1623:00+11зсз22905 0.0 101293
02:00+10с119039 0.0 101377
05:00+9св2291100 0.0 101248
08:00+12всв128792 0.1 1013124
11:00+16ююз2177100 0.1 1013638
14:00+16юз227692 0.4 1013701
17:00+16юз227684 0.1 1013521
20:00+15в1281100 0.2 101251
17 мая, пн
пн1723:00+14в0184100 0.0 101339
02:00+14всв228751 0.0 101349
05:00+12св22916 0.0 101241
08:00+16всв227952 0.0 1013243
11:00+20ююв23615 0.0 1012851
14:00+21ю235883 0.0 1012876
17:00+20ююв246163 0.0 1012559
20:00+17вюв117781 0.0 101113